Regional Weather Roundup
Issued by NWS

Home | Current Version | Previous Version | Graphics & Text | Print | Product List | Glossary On
Versions: 1 2 3 4 5 6 7 8 9 10 11 12 13 14 15 16 17 18 19 20 21 22 23 24 25 26 27 28 29 30 31 32 33 34 35 36 37 38 39 40 41 42 43 44 45 46 47 48 49 50
000
ASUS43 KFSD 101902
RWRSD

WEATHER ROUNDUP FOR SOUTH DAKOTA
NATIONAL WEATHER SERVICE SIOUX FALLS SD
100 PM CST WED FEB 10 2016

NOTE: "FAIR" INDICATES FEW OR NO CLOUDS BELOW 12,000 FEET WITH NO
SIGNIFICANT WEATHER AND/OR OBSTRUCTIONS TO VISIBILITY.


SDZ001>005-009-010-012>017-102000-
NORTHWEST AND NORTH CENTRAL SOUTH DAKOTA

CITY           SKY/WX    TMP DP  RH WIND       PRES   REMARKS
BUFFALO          N/A     53  28  38 NW20      29.89R
FAITH            N/A     52  28  39 N21G26    29.89R
MOBRIDGE       SUNNY     36  25  64 VRB5      29.88R
$$

SDZ012>016-024>037-041>051-057-063-072>074-102000-
SOUTHWEST AND SOUTH CENTRAL SOUTH DAKOTA

CITY           SKY/WX    TMP DP  RH WIND       PRES   REMARKS
RAPID CTY ARPT SUNNY     63  19  18 NW35G41   29.91R
PIERRE         SUNNY     45  29  53 N12       29.86S
CUSTER         CLOUDY    56  17  21 NW17G29   29.98S
PHILIP         SUNNY     56  28  34 NW26G36   29.87F
PINE RIDGE     SUNNY     59  25  27 W10       29.94F
WINNER           N/A    N/A N/A N/A MISG      29.84F
$$

SDZ004>011-016>023-039-040-102000-
NORTHEAST SOUTH DAKOTA

CITY           SKY/WX    TMP DP  RH WIND       PRES   REMARKS
ABERDEEN       CLOUDY    19  13  77 E9        29.99R HAZE    WCI   8
WATERTOWN      CLOUDY    13   6  74 E10       29.97S WCI   0
BROOKINGS      LGT SNOW  13   9  84 E10       29.97S FOG     WCI   0
SISSETON         N/A      9   5  84 SE10      30.06S WCI  -5
$$

SDZ017-020-022-023-036>040-048>070-102000-
SOUTHEAST SOUTH DAKOTA

CITY           SKY/WX    TMP DP  RH WIND       PRES   REMARKS
SIOUX FALLS    CLOUDY    18  13  80 E15       29.96S WCI   4
HURON          CLOUDY    23  18  81 SE13      29.94S WCI  11
MITCHELL       SUNNY     30  21  69 SE14      29.93F WCI  19
YANKTON        SUNNY     28  19  69 E10       29.92F WCI  19
$$

ABBREVIATIONS USED IN REMARKS
   TC - TEMPERATURE IN CELSIUS
  WCI - WIND CHILL INDEX
   HX - HEAT INDEX
  VSB - VISIBILITY




USA.gov is the U.S. government's official web portal to all federal, state and local government web resources and services.